Back to catalog

FENGYUN 1C DEB

AlivePO
NORAD 31990·DEBRIS·🇨🇳 China

Launched May 10, 1999 from Taiyuan Satellite Launch Center

Loading…

Next Passes (next 24 hours)

TLE

AgingSource: Space-Track

Epoch: Sep 10, 2026, 06:17 UTC

1 31990U 99025CPT 26253.26207241  .00000134  00000-0  19666-3 0  9998
2 31990  99.1476 262.2326 0259155 208.9923 214.9659 13.57326042664558

Track FENGYUN 1C DEB in real time with AllMySat

Download on the App Store